Location: Meadowbank Aerodrome
(65.0250°N, 96.0705°W)
Time: 20:03:44
(UTC-06:00)

Cosmos 2221 - Visible Passes

Search period start: 22 January 2018 00:00
Search period end: 01 February 2018 00:00
Orbit: 593 x 617 km, 82.5° (Epoch: 22 January)

Date Brightness Start Highest point End Pass type
(mag) Time Alt. Az. Time Alt. Az. Time Alt. Az.
22 Jan 4.7 06:04:09 10° SE 06:07:46 27° E 06:11:25 10° NNE visible
22 Jan 2.4 07:40:43 10° SSW 07:45:01 74° WNW 07:49:23 10° NNE visible
22 Jan 3.0 17:34:44 10° NNW 17:39:04 66° W 17:43:26 10° S visible
22 Jan 5.6 19:13:10 10° NW 19:15:57 17° W 19:18:43 10° WSW visible
23 Jan 4.2 06:16:38 10° SSE 06:20:35 36° E 06:24:33 10° NNE visible
23 Jan 2.6 07:53:49 10° SW 07:58:04 55° WNW 08:02:21 10° NNE visible
23 Jan 3.7 17:47:46 10° NNW 17:51:59 48° W 17:56:12 10° S visible
23 Jan 5.8 19:26:45 10° NW 19:28:37 13° WNW 19:30:30 10° W visible
24 Jan 5.8 04:54:57 10° E 04:56:48 13° ENE 04:58:39 10° NE visible
24 Jan 3.5 06:29:17 10° S 06:33:25 49° E 06:37:38 10° NNE visible
24 Jan 2.9 08:07:03 10° SW 08:11:09 41° WNW 08:15:19 10° NNE visible
24 Jan 4.3 18:00:51 10° NNW 18:04:51 36° W 18:08:51 10° SSW visible
25 Jan 5.5 05:06:43 10° ESE 05:09:29 17° E 05:12:15 10° NE visible
25 Jan 2.9 06:42:04 10° S 06:46:21 67° E 06:50:40 10° NNE visible
25 Jan 3.2 08:20:23 10° WSW 08:24:17 32° NW 08:28:15 10° N visible
25 Jan 2.5 16:36:00 10° NNW 16:40:24 75° ENE 16:44:49 10° SSE visible
25 Jan 4.9 18:13:59 10° NNW 18:17:39 27° W 18:21:20 10° SW visible
26 Jan 5.0 05:18:52 10° SE 05:22:12 22° E 05:25:34 10° NNE visible
26 Jan 2.5 06:54:57 10° SSW 06:59:18 90° ESE 07:03:41 10° NNE visible
26 Jan 2.7 16:49:00 10° NNW 16:53:24 82° WSW 16:57:48 10° S visible
26 Jan 5.3 18:27:11 10° NW 18:30:25 20° W 18:33:40 10° SW visible
27 Jan 4.5 05:31:15 10° SSE 05:34:59 29° E 05:38:45 10° NNE visible
27 Jan 2.4 07:07:59 10° SSW 07:12:18 68° WNW 07:16:41 10° NNE visible
27 Jan 3.2 17:02:00 10° NNW 17:06:21 60° W 17:10:41 10° S visible
27 Jan 5.6 18:40:33 10° NW 18:43:08 16° WNW 18:45:44 10° WSW visible
28 Jan 6.0 04:10:54 10° ENE 04:11:20 10° ENE 04:11:47 10° ENE visible
28 Jan 3.9 05:43:47 10° SSE 05:47:48 39° E 05:51:53 10° NNE visible
28 Jan 2.7 07:21:08 10° SW 07:25:21 51° WNW 07:29:39 10° NNE visible
28 Jan 3.9 17:15:03 10° NNW 17:19:14 44° W 17:23:25 10° SSW visible
28 Jan 5.8 18:54:17 10° NW 18:55:48 12° WNW 18:57:20 10° W visible
29 Jan 5.7 04:21:48 10° ESE 04:23:58 14° ENE 04:26:10 10° NE visible
29 Jan 3.3 05:56:28 10° S 06:00:40 53° E 06:04:57 10° NNE visible
29 Jan 3.0 07:34:23 10° SW 07:38:28 39° WNW 07:42:35 10° N visible
29 Jan 4.5 17:28:08 10° NNW 17:32:05 33° W 17:36:02 10° SSW visible
30 Jan 5.3 04:33:43 10° ESE 04:36:41 18° E 04:39:39 10° NE visible
30 Jan 2.7 06:09:17 10° S 06:13:36 73° ESE 06:17:58 10° NNE visible
30 Jan 3.3 07:47:44 10° WSW 07:51:36 30° NW 07:55:31 10° N visible
30 Jan 5.0 17:41:17 10° NNW 17:44:53 25° W 17:48:28 10° SW visible
31 Jan 4.8 04:45:56 10° SE 04:49:25 24° E 04:52:56 10° NNE visible
31 Jan 2.4 06:22:12 10° SSW 06:26:33 84° WNW 06:30:59 10° NNE visible
31 Jan 3.6 08:01:13 10° WSW 08:04:48 24° NW 08:08:26 10° N visible
31 Jan 5.4 17:54:32 10° NW 17:57:38 19° W 18:00:43 10° SW visible
